SONATE
1 44400U 19038Q   25137.52588812  .00226911  00000-0  10068-2 0  9998
2 44400  97.6915 161.5673 0000945 321.9179  38.2022 15.83778036325915
Taurus 1
1 44530U 19059C   25137.85706774  .00009459  00000-0  17493-2 0  9995
2 44530  98.6051 276.1794 0010747 109.6858 250.5504 14.65570041300613
Duchifat 3
1 44854U 19089C   25137.69179290  .00051265  00000-0  10657-2 0  9993
2 44854  36.9427 140.5111 0001601 180.8364 179.2390 15.44640945299406
TO-108
1 44881U 19093C   25137.86120100  .00001237  00000-0  14910-3 0  9994
2 44881  97.7927 213.9857 0012591 310.1101  49.9010 14.85556587292705
FloripaSat 1
1 44885U 19093G   25137.84216678  .00007388  00000-0  62638-3 0  9995
2 44885  97.8139 225.4000 0009174 278.2200  81.7981 14.98223590293341
RS-44
1 44909U 19096E   25137.56914352  .00000038  00000-0  10967-3 0  9991
2 44909  82.5222 242.5640 0217135 349.6827   9.9852 12.79740519251792
UPMSat 2
1 46276U 20061E   25137.18858722  .00077409  00000-0  76411-3 0  9992
2 46276  97.2449 210.8370 0001523 163.2697 196.8613 15.65671827261807
SALSAT
1 46495U 20068K   25137.87703189  .00009692  00000-0  42174-3 0  9992
2 46495  97.8599 114.8648 0009761 235.7444 124.2867 15.22431264255070
CubeSX-Sirius-HSE
1 47951U 21022V   25137.88289678  .00454702  78611-4  16341-2 0  9993
2 47951  97.4130  50.2876 0005990 102.6927 257.5015 15.88686668230248
CubeSX-HSE
1 47952U 21022W   25137.76908256  .00471917  85082-4  16717-2 0  9995
2 47952  97.4136  50.4286 0005484 104.6500 255.5381 15.88982468230240
GRBAlpha
1 47959U 21022AD  25137.06693774  .00345075  00000-0  13087-2 0  9996
2 47959  97.4147  49.7381 0005733  99.7513 260.4406 15.86771560228956
TUBIN
1 48900U 21059X   25137.88172689  .00056936  00000-0  74171-3 0  9997
2 48900  97.6748 305.3009 0002322 307.9640  52.1405 15.58558408216502
LEDSAT
1 49069U 21073D   25137.78015520  .00079913  00000-0  10651-2 0  9991
2 49069  97.3892 218.4170 0011781 161.0687 199.1009 15.57778946207881
CUTE
1 49263U 21088D   25137.45265885  .00029127  00000-0  59416-3 0  9993
2 49263  97.4511 213.0518 0007003 331.1452  28.9409 15.46142453200854
TeikyoSat 4
1 49396U 21102B   25137.51970291  .00003363  00000-0  22496-3 0  9990
2 49396  97.4117 176.7796 0011893 205.9748 154.0885 15.07544576193077
Z-Sat
1 49399U 21102E   25137.88760289  .00005234  00000-0  28893-3 0  9993
2 49399  97.3813 180.0918 0018378 177.3411 182.7922 15.14213994193547
KOSEN 1
1 49402U 21102H   25137.56587707  .00008947  00000-0  41716-3 0  9998
2 49402  97.3719 183.0229 0016972 154.3695 205.8385 15.19970179193799
HO-113
1 50466U 21131B   25137.84370042  .00000701  00000-0  23278-3 0  9998
2 50466  98.5091 227.3095 0004025 186.9970 173.1163 14.40787161178179
IRIS-A
1 51044U 22002BN  25137.47046080  .00482113  93975-4  13561-2 0  9991
2 51044  97.3225 217.1352 0007860 233.3971 126.6581 15.93473533186214
Foresail-1
1 52766U 22057AL  25137.39757987  .00272260  00000-0  11271-2 0  9998
2 52766  97.6052 286.7057 0004238 274.5534  85.5251 15.85126317166210
SNUGLITE 2
1 52899U 22065F   25137.37604765  .00001475  00000-0  29591-3 0  9990
2 52899  98.1657 279.5805 0007728 176.7360 183.3894 14.63157420153098
IO-117
1 53106U 22080B   25051.21822557 -.00000003  00000-0  00000+0 0  9995
2 53106  70.1434 106.3440 0008542  48.0089 312.1297  6.42557744 61200
UmKA 1 (RS40S)
1 57172U 23091G   25137.88965135  .00008162  00000-0  43795-3 0  9998
2 57172  97.5591 193.3921 0015712  57.8578 302.4176 15.15104687104044
CubeBel-2 (EU11S)
1 57175U 23091K   25137.84535767  .00013106  00000-0  62994-3 0  9997
2 57175  97.5588 194.3597 0013561  66.9407 293.3255 15.18867414104105
VERONIKA
1 58261U 23174F   25137.79268164  .00143009  00000-0  14603-2 0  9993
2 58261  97.4126 222.7049 0006014 153.5035 206.6532 15.64578239 85111
ENSO
1 58470U 23185J   25137.85158940  .00064817  00000-0  10161-2 0  9998
2 58470  97.3737 212.2832 0008966 161.0932 199.0656 15.53447764 81509
EIRSAT-1
1 58472U 23185L   25137.88481086  .00117669  00000-0  12800-2 0  9999
2 58472  97.3706 213.8614 0007624 167.2355 192.9098 15.63031103 81610
SONATE-2
1 59112U 24043Q   25137.61916605  .00022714  00000-0  66869-3 0  9997
2 59112  97.5111 268.3543 0011502 190.7289 169.3711 15.35006212 66814
MO-122
1 60209U 24125G   25137.50792541  .00021988  00000-0  63932-3 0  9996
2 60209  97.2816 349.3952 0018141 215.7304 144.2727 15.35299462 48414
GRBBeta
1 60237U 24128C   25137.44332956  .00004744  00000-0  36231-3 0  9996
2 60237  61.9899 160.2140 0050118  52.1746 308.3865 15.02415251 46724
Curium One
1 60242U 24128H   25137.45024895  .00008323  00000-0  58591-3 0  9993
2 60242  61.9797 158.8104 0050059  47.8303 312.7024 15.04733086 46754
ROBUSTA-3A
1 60243U 24128J   25137.44589905  .00007403  00000-0  52979-3 0  9993
2 60243  61.9867 159.5772 0048638  45.5789 314.9267 15.04303171 46745
CatSat
1 60246U 24125J   25137.14861911  .00012299  00000-0  41574-3 0  9998
2 60246  97.2608 348.5158 0043342 175.4646 184.6996 15.29857974 46409
HYPERVIEW-1G (RS66S)
1 61772U 24199AP  25137.86042419  .00027838  00000-0  82917-3 0  9998
2 61772  97.3560   6.7774 0011801 273.3956  86.5937 15.34590487 73477
AO-123
1 61781U 24199AY  25137.85905505  .00009741  00000-0  35758-3 0  9995
2 61781  97.3574   5.8936 0014055 279.4746  80.4904 15.28058898 73419
ZIMSAT 2
1 61783U 24199BA  25137.85391472  .00046707  00000-0  11995-2 0  9998
2 61783  97.3542   7.2238 0011713 269.7949  90.1955 15.39095345 76655
HADES-R (SO-124)
1 62690U 25009CK  25137.30164264  .00046484  00000-0  17186-2 0  9994
2 62690  97.4092 218.2269 0004670 163.4065 196.7328 15.27548750 18591
HYDRA-T
1 62692U 25009CM  25137.48714057  .00049160  00000-0  18039-2 0  9998
2 62692  97.4088 218.4359 0004506 158.1110 202.0322 15.27783189 18626
JINJUSat 1B
1 63210U 25052A   25137.42864482  .00014993  00000-0  69558-3 0  9994
2 63210  97.4442  31.8513 0006065  59.5192 300.6641 15.20123758  9736
NUSHSAT 1
1 63211U 25052B   25137.16328043  .00015595  00000-0  71998-3 0  9994
2 63211  97.4429  31.5863 0006218  63.6197 296.5675 15.20282961  9695
TEVEL2-4
1 63213U 25052D   25137.43582320  .00016259  00000-0  75624-3 0  9994
2 63213  97.4346  31.7678 0005582  76.4971 283.6886 15.20019733  9737
TEVEL2-5
1 63214U 25052E   25137.43616133  .00016174  00000-0  75265-3 0  9992
2 63214  97.4347  31.7677 0005572  76.4020 283.7835 15.20005095  9733
TEVEL2-6
1 63215U 25052F   25137.43768881  .00016235  00000-0  75632-3 0  9997
2 63215  97.4348  31.7665 0005628  76.9678 283.2185 15.19965487  9739
TEVEL2-1
1 63217U 25052H   25137.44554586  .00016394  00000-0  76824-3 0  9995
2 63217  97.4326  31.7362 0005850  85.1481 275.0421 15.19759603  9735
TEVEL2-2
1 63218U 25052J   25137.84087866  .00016326  00000-0  76487-3 0  9992
2 63218  97.4323  32.1253 0005912  85.0968 275.0942 15.19768266  9794
TEVEL2-3
1 63219U 25052K   25137.90677311  .00016325  00000-0  76486-3 0  9998
2 63219  97.4322  32.1899 0005897  84.6771 275.5137 15.19766503  9804
TEVEL2-8
1 63237U 25052AD  25137.42730525  .00014795  00000-0  71732-3 0  9990
2 63237  97.4390  31.6602 0010515  95.0575 265.1859 15.18566606  9724
TEVEL2-9
1 63238U 25052AE  25137.16522305  .00014057  00000-0  68289-3 0  9991
2 63238  97.4391  31.4006 0010592  95.9291 264.3150 15.18508359  9682
TEVEL2-7
1 63239U 25052AF  25137.16664262  .00014257  00000-0  69321-3 0  9991
2 63239  97.4387  31.3979 0010606  96.3247 263.9195 15.18473714  9688
HYDRA-W
1 63490U 25052BL  25137.47831097  .00037174  00000-0  16196-2 0  9990
2 63490  97.4333  31.8574 0014830  93.8052 266.4880 15.22002064  9740
HADES-ICM
1 63492U 25052BN  25137.22428980  .00032506  00000-0  14331-2 0  9991
2 63492  97.4345  31.5893 0015024  97.5552 262.7391 15.21625609  9705
